Location: Walsall
(52.5862°N, 1.9829°W)
Time: 13:39:16
(UTC+01:00)

Tiangong - Pass Details

Date: 28 June 2021
Orbit: 373 x 386 km, 41.5° (Epoch: 31 July)

Event Time Altitude Azimuth Distance (km) Brightness Sun altitude
Exits shadow 03:40:51 10° 203° (SSW) 1,393 3.2 -7.4°
Reaches altitude 10° 03:40:55 10° 202° (SSW) 1,384 3.2 -7.4°
Maximum altitude 03:41:46 11° 186° (S) 1,336 3.3 -7.4°
Drops below altitude 10° 03:42:38 10° 170° (S) 1,386 3.5 -7.3°
Sets 03:46:00 0° 131° (SE) 2,242 4.9 -7.0°
